Regional Weather Roundup
Issued by NWS

Home | Current Version | Previous Version | Graphics & Text | Print | Product List | Glossary On
Versions: 1 2 3 4 5 6 7 8 9 10 11 12 13 14 15 16 17 18 19 20 21 22 23 24 25 26 27 28 29 30 31 32 33 34 35 36 37 38 39 40 41 42 43 44 45 46 47 48 49 50
000
ASUS43 KFSD 241710
RWRSD

WEATHER ROUNDUP FOR SOUTH DAKOTA
NATIONAL WEATHER SERVICE SIOUX FALLS SD
1100 AM CST WED DEC 24 2014

NOTE: "FAIR" INDICATES FEW OR NO CLOUDS BELOW 12,000 FEET WITH NO
SIGNIFICANT WEATHER AND/OR OBSTRUCTIONS TO VISIBILITY.


SDZ001>005-009-010-012>017-241800-
NORTHWEST AND NORTH CENTRAL SOUTH DAKOTA

CITY           SKY/WX    TMP DP  RH WIND       PRES   REMARKS
BUFFALO          N/A     29  22  75 S3        29.56F
FAITH            N/A     22  16  78 S15       29.66F WCI   9
MOBRIDGE       PTSUNNY   22  18  85 SE12      29.70F WCI  10
$$

SDZ012>016-024>037-041>051-057-063-072>074-241800-
SOUTHWEST AND SOUTH CENTRAL SOUTH DAKOTA

CITY           SKY/WX    TMP DP  RH WIND       PRES   REMARKS
RAPID CTY ARPT CLOUDY    24  18  77 CALM      29.68F
PIERRE         SUNNY     17  14  88 SE7       29.78F WCI   8
CUSTER         PTSUNNY   36  18  48 W6        29.68S
ELLSWORTH AFB  CLOUDY    29  17  60 SW5       29.66F WCI  24
PHILIP         MOSUNNY   22  17  81 CALM      29.74F
PINE RIDGE     SUNNY     22  16  78 W3        29.75F
SPEARFISH      FAIR      37  21  52 W12       29.66F
WINNER         FAIR      23  14  68 SW9       29.81F WCI  13
$$

SDZ004>011-016>023-039-040-241800-
NORTHEAST SOUTH DAKOTA

CITY           SKY/WX    TMP DP  RH WIND       PRES   REMARKS
ABERDEEN       CLOUDY    27  23  85 SW10      29.81F FOG     WCI  17
WATERTOWN      FOG       24  22  91 W7        29.78F VSB 1   WCI  16
SISSETON         N/A     25  24  96 W6        29.79  WCI  18
$$

SDZ017-020-022-023-036>040-048>070-241800-
SOUTHEAST SOUTH DAKOTA

CITY           SKY/WX    TMP DP  RH WIND       PRES   REMARKS
SIOUX FALLS    LGT SNOW  26  24  92 W8        29.84F FOG     WCI  18
HURON          CLOUDY    25  23  92 W8        29.83F FOG     WCI  16
CHAMBERLAIN    CLOUDY    24  24  98 S6        29.82F FOG     WCI  17
MITCHELL       CLOUDY    26  25  96 W6        29.86F FOG     WCI  19
YANKTON        CLOUDY    27  21  80 NW12      29.88F WCI  16
$$

ABBREVIATIONS USED IN REMARKS
   TC - TEMPERATURE IN CELSIUS
  WCI - WIND CHILL INDEX
   HX - HEAT INDEX
  VSB - VISIBILITY



USA.gov is the U.S. government's official web portal to all federal, state and local government web resources and services.